Time,TemperatureF,DewpointF,PressureIn,WindDirection,WindDirectionDegrees,WindSpeedMPH,WindSpeedGustMPH,Humidity,HourlyPrecipIn,Conditions,Clouds,dailyrainin,SoftwareType,DateUTC
2013-06-12 00:10:00,66.9,63.0,29.78,West,261,0.0,2.0,86,0.00,,,0.00,weatherlink.com 1.10,2013-06-12 04:10:00,
2013-06-12 00:25:00,66.0,62.0,29.78,West,261,0.0,1.0,88,0.00,,,0.00,weatherlink.com 1.10,2013-06-12 04:25:00,
2013-06-12 00:41:00,64.7,62.0,29.78,West,261,0.0,2.0,91,0.00,,,0.00,weatherlink.com 1.10,2013-06-12 04:41:00,
2013-06-12 00:56:00,64.1,62.0,29.78,West,261,0.0,1.0,92,0.00,,,0.00,weatherlink.com 1.10,2013-06-12 04:56:00,
2013-06-12 01:11:00,63.5,62.0,29.79,West,261,0.0,2.0,93,0.00,,,0.00,weatherlink.com 1.10,2013-06-12 05:11:00,
2013-06-12 01:26:00,62.7,61.0,29.79,West,261,0.0,2.0,93,0.00,,,0.00,weatherlink.com 1.10,2013-06-12 05:26:00,
2013-06-12 01:41:00,62.0,60.0,29.78,West,261,1.0,1.0,94,0.00,,,0.00,weatherlink.com 1.10,2013-06-12 05:41:00,
2013-06-12 01:56:00,62.0,61.0,29.78,West,261,0.0,2.0,95,0.00,,,0.00,weatherlink.com 1.10,2013-06-12 05:56:00,
2013-06-12 02:11:00,61.9,61.0,29.77,West,261,0.0,1.0,96,0.00,,,0.00,weatherlink.com 1.10,2013-06-12 06:11:00,
2013-06-12 02:26:00,61.8,61.0,29.77,West,261,0.0,1.0,96,0.00,,,0.00,weatherlink.com 1.10,2013-06-12 06:26:00,
2013-06-12 02:41:00,61.3,60.0,29.77,West,261,0.0,1.0,95,0.00,,,0.00,weatherlink.com 1.10,2013-06-12 06:41:00,
2013-06-12 03:11:00,60.5,59.0,29.77,West,261,1.0,1.0,96,0.00,,,0.00,weatherlink.com 1.10,2013-06-12 07:11:00,
2013-06-12 03:41:00,60.3,60.0,29.78,West,261,0.0,0.0,97,0.00,,,0.00,weatherlink.com 1.10,2013-06-12 07:41:00,
2013-06-12 03:56:00,60.4,60.0,29.77,West,261,1.0,1.0,97,0.00,,,0.00,weatherlink.com 1.10,2013-06-12 07:56:00,
2013-06-12 04:27:00,60.3,60.0,29.79,West,261,1.0,2.0,98,0.00,,,0.00,weatherlink.com 1.10,2013-06-12 08:27:00,
2013-06-12 04:41:00,60.5,60.0,29.80,West,261,0.0,2.0,97,0.00,,,0.00,weatherlink.com 1.10,2013-06-12 08:41:00,
2013-06-12 04:56:00,60.7,60.0,29.80,West,261,1.0,2.0,97,0.00,,,0.00,weatherlink.com 1.10,2013-06-12 08:56:00,
2013-06-12 05:11:00,60.7,60.0,29.81,West,261,0.0,1.0,97,0.00,,,0.00,weatherlink.com 1.10,2013-06-12 09:11:00,
2013-06-12 05:26:00,60.4,59.0,29.81,West,261,0.0,1.0,96,0.00,,,0.00,weatherlink.com 1.10,2013-06-12 09:26:00,
2013-06-12 05:41:00,59.9,59.0,29.81,West,261,0.0,0.0,96,0.00,,,0.00,weatherlink.com 1.10,2013-06-12 09:41:00,
2013-06-12 05:56:00,59.8,59.0,29.81,West,261,0.0,1.0,97,0.00,,,0.00,weatherlink.com 1.10,2013-06-12 09:56:00,
2013-06-12 06:11:00,59.5,59.0,29.81,West,261,0.0,0.0,97,0.00,,,0.00,weatherlink.com 1.10,2013-06-12 10:11:00,
2013-06-12 06:26:00,60.0,60.0,29.80,West,261,1.0,2.0,98,0.00,,,0.00,weatherlink.com 1.10,2013-06-12 10:26:00,
2013-06-12 06:41:00,60.8,60.0,29.81,West,261,0.0,1.0,98,0.00,,,0.00,weatherlink.com 1.10,2013-06-12 10:41:00,
2013-06-12 06:56:00,61.3,61.0,29.82,West,261,0.0,1.0,97,0.00,,,0.00,weatherlink.com 1.10,2013-06-12 10:56:00,
2013-06-12 07:11:00,62.2,61.0,29.82,West,261,1.0,2.0,96,0.00,,,0.00,weatherlink.com 1.10,2013-06-12 11:11:00,
2013-06-12 07:26:00,63.5,62.0,29.81,West,261,0.0,2.0,95,0.00,,,0.00,weatherlink.com 1.10,2013-06-12 11:26:00,
2013-06-12 07:41:00,64.3,62.0,29.81,West,261,0.0,1.0,91,0.00,,,0.00,weatherlink.com 1.10,2013-06-12 11:41:00,
2013-06-12 07:56:00,65.0,62.0,29.82,West,261,1.0,2.0,91,0.00,,,0.00,weatherlink.com 1.10,2013-06-12 11:56:00,
2013-06-12 08:11:00,66.1,63.0,29.81,West,261,1.0,2.0,89,0.00,,,0.00,weatherlink.com 1.10,2013-06-12 12:11:00,
2013-06-12 08:26:00,67.7,64.0,29.81,West,261,0.0,2.0,88,0.00,,,0.00,weatherlink.com 1.10,2013-06-12 12:26:00,
2013-06-12 08:41:00,67.8,64.0,29.82,NW,304,1.0,4.0,87,0.00,,,0.00,weatherlink.com 1.10,2013-06-12 12:41:00,
2013-06-12 08:56:00,69.5,65.0,29.81,ESE,122,0.0,3.0,84,0.00,,,0.00,weatherlink.com 1.10,2013-06-12 12:56:00,
2013-06-12 09:12:00,70.4,65.0,29.81,ESE,122,0.0,2.0,84,0.00,,,0.00,weatherlink.com 1.10,2013-06-12 13:12:00,
2013-06-12 09:27:00,71.0,66.0,29.81,SE,126,1.0,3.0,83,0.00,,,0.00,weatherlink.com 1.10,2013-06-12 13:27:00,
2013-06-12 09:42:00,70.9,66.0,29.81,SE,126,2.0,2.0,85,0.00,,,0.00,weatherlink.com 1.10,2013-06-12 13:42:00,
2013-06-12 09:57:00,71.2,66.0,29.82,SE,126,0.0,3.0,83,0.00,,,0.00,weatherlink.com 1.10,2013-06-12 13:57:00,
2013-06-12 10:12:00,70.7,65.0,29.81,SSW,192,1.0,4.0,83,0.00,,,0.00,weatherlink.com 1.10,2013-06-12 14:12:00,
2013-06-12 10:27:00,71.3,66.0,29.83,SSW,192,0.0,1.0,82,0.00,,,0.00,weatherlink.com 1.10,2013-06-12 14:27:00,
2013-06-12 10:42:00,71.7,66.0,29.83,SW,215,2.0,2.0,82,0.00,,,0.00,weatherlink.com 1.10,2013-06-12 14:42:00,
2013-06-12 10:57:00,71.2,66.0,29.84,WNW,298,3.0,4.0,82,0.00,,,0.00,weatherlink.com 1.10,2013-06-12 14:57:00,
2013-06-12 11:12:00,71.1,67.0,29.85,WSW,257,2.0,6.0,86,0.00,,,0.00,weatherlink.com 1.10,2013-06-12 15:12:00,
2013-06-12 11:27:00,71.2,66.0,29.84,SW,221,1.0,4.0,84,0.00,,,0.00,weatherlink.com 1.10,2013-06-12 15:27:00,
2013-06-12 11:42:00,71.9,67.0,29.82,SW,225,1.0,4.0,83,0.00,,,0.00,weatherlink.com 1.10,2013-06-12 15:42:00,
2013-06-12 11:57:00,72.4,66.0,29.78,ESE,123,2.0,8.0,81,0.00,,,0.00,weatherlink.com 1.10,2013-06-12 15:57:00,
2013-06-12 12:12:00,72.8,65.0,29.78,SSE,161,5.0,8.0,77,0.00,,,0.00,weatherlink.com 1.10,2013-06-12 16:12:00,
2013-06-12 12:27:00,72.3,66.0,29.74,ESE,123,5.0,7.0,80,0.00,,,0.00,weatherlink.com 1.10,2013-06-12 16:27:00,
2013-06-12 12:43:00,72.7,66.0,29.73,SE,124,3.0,9.0,78,0.00,,,0.00,weatherlink.com 1.10,2013-06-12 16:43:00,
2013-06-12 12:57:00,72.9,66.0,29.73,East,82,4.0,11.0,78,0.00,,,0.00,weatherlink.com 1.10,2013-06-12 16:57:00,
2013-06-12 13:12:00,74.0,65.0,29.73,East,87,3.0,9.0,74,0.00,,,0.00,weatherlink.com 1.10,2013-06-12 17:12:00,
2013-06-12 13:27:00,74.2,66.0,29.75,South,174,3.0,5.0,75,0.00,,,0.00,weatherlink.com 1.10,2013-06-12 17:27:00,
2013-06-12 13:42:00,73.8,66.0,29.80,South,186,5.0,8.0,76,0.00,,,0.00,weatherlink.com 1.10,2013-06-12 17:42:00,
2013-06-12 13:57:00,73.4,66.0,29.80,WSW,238,2.0,7.0,77,0.00,,,0.00,weatherlink.com 1.10,2013-06-12 17:57:00,
2013-06-12 14:12:00,73.0,65.0,29.74,NNE,29,3.0,5.0,75,0.00,,,0.00,weatherlink.com 1.10,2013-06-12 18:12:00,
2013-06-12 14:27:00,72.3,65.0,29.79,West,262,2.0,9.0,79,0.00,,,0.00,weatherlink.com 1.10,2013-06-12 18:27:00,
2013-06-12 14:42:00,72.4,65.0,29.74,East,80,1.0,4.0,78,0.00,,,0.00,weatherlink.com 1.10,2013-06-12 18:42:00,
2013-06-12 14:57:00,73.0,66.0,29.73,ESE,122,0.0,4.0,78,0.00,,,0.00,weatherlink.com 1.10,2013-06-12 18:57:00,
2013-06-12 15:12:00,72.8,66.0,29.75,SSE,152,2.0,5.0,78,0.00,,,0.00,weatherlink.com 1.10,2013-06-12 19:12:00,
2013-06-12 15:27:00,72.6,65.0,29.75,WSW,238,4.0,7.0,78,0.00,,,0.00,weatherlink.com 1.10,2013-06-12 19:27:00,
2013-06-12 15:42:00,72.6,66.0,29.77,SW,224,3.0,5.0,79,0.00,,,0.00,weatherlink.com 1.10,2013-06-12 19:42:00,
2013-06-12 15:57:00,72.6,66.0,29.77,West,278,1.0,7.0,79,0.00,,,0.00,weatherlink.com 1.10,2013-06-12 19:57:00,
2013-06-12 16:12:00,72.6,66.0,29.75,SW,230,0.0,4.0,79,0.00,,,0.00,weatherlink.com 1.10,2013-06-12 20:12:00,
2013-06-12 16:27:00,72.1,65.0,29.75,SSW,201,1.0,5.0,79,0.00,,,0.00,weatherlink.com 1.10,2013-06-12 20:27:00,
2013-06-12 16:42:00,72.5,66.0,29.75,South,188,1.0,4.0,81,0.00,,,0.00,weatherlink.com 1.10,2013-06-12 20:42:00,
2013-06-12 16:57:00,72.7,66.0,29.75,SE,146,3.0,4.0,80,0.00,,,0.00,weatherlink.com 1.10,2013-06-12 20:57:00,
2013-06-12 17:12:00,72.7,66.0,29.74,South,177,1.0,3.0,80,0.00,,,0.00,weatherlink.com 1.10,2013-06-12 21:12:00,
2013-06-12 17:27:00,72.6,67.0,29.73,South,175,1.0,3.0,82,0.00,,,0.00,weatherlink.com 1.10,2013-06-12 21:27:00,
2013-06-12 17:42:00,71.9,67.0,29.74,South,175,0.0,2.0,83,0.00,,,0.00,weatherlink.com 1.10,2013-06-12 21:42:00,
2013-06-12 17:57:00,70.7,67.0,29.73,South,190,0.0,2.0,88,0.00,,,0.00,weatherlink.com 1.10,2013-06-12 21:57:00,
2013-06-12 18:12:00,70.1,67.0,29.73,South,190,1.0,3.0,89,0.00,,,0.00,weatherlink.com 1.10,2013-06-12 22:12:00,
2013-06-12 18:27:00,69.3,67.0,29.73,South,190,1.0,3.0,91,0.00,,,0.00,weatherlink.com 1.10,2013-06-12 22:27:00,
2013-06-12 18:42:00,70.2,67.0,29.73,South,178,0.0,1.0,89,0.01,,,0.01,weatherlink.com 1.10,2013-06-12 22:42:00,
2013-06-12 18:57:00,70.6,68.0,29.71,South,178,0.0,2.0,90,0.01,,,0.01,weatherlink.com 1.10,2013-06-12 22:57:00,
2013-06-12 19:12:00,70.6,68.0,29.70,NW,305,0.0,3.0,90,0.01,,,0.01,weatherlink.com 1.10,2013-06-12 23:12:00,
2013-06-12 19:27:00,70.3,67.0,29.71,ENE,66,1.0,4.0,89,0.01,,,0.01,weatherlink.com 1.10,2013-06-12 23:27:00,
2013-06-12 19:42:00,70.2,67.0,29.70,SSE,155,1.0,3.0,90,0.00,,,0.01,weatherlink.com 1.10,2013-06-12 23:42:00,
2013-06-12 19:57:00,69.9,67.0,29.68,SE,130,3.0,3.0,90,0.00,,,0.01,weatherlink.com 1.10,2013-06-12 23:57:00,
2013-06-12 20:12:00,69.4,66.0,29.68,SE,130,1.0,3.0,90,0.00,,,0.01,weatherlink.com 1.10,2013-06-13 00:12:00,
2013-06-12 20:27:00,69.3,67.0,29.67,NNE,32,4.0,5.0,92,0.00,,,0.01,weatherlink.com 1.10,2013-06-13 00:27:00,
2013-06-12 20:42:00,68.9,67.0,29.67,NE,34,3.0,6.0,92,0.01,,,0.02,weatherlink.com 1.10,2013-06-13 00:42:00,
2013-06-12 20:58:00,68.6,67.0,29.66,NNE,25,4.0,6.0,93,0.01,,,0.02,weatherlink.com 1.10,2013-06-13 00:58:00,
2013-06-12 21:13:00,68.5,67.0,29.66,ENE,63,2.0,5.0,93,0.01,,,0.02,weatherlink.com 1.10,2013-06-13 01:13:00,
2013-06-12 21:28:00,67.9,66.0,29.66,South,178,0.0,3.0,93,0.01,,,0.02,weatherlink.com 1.10,2013-06-13 01:28:00,
2013-06-12 21:43:00,67.2,66.0,29.66,South,178,1.0,2.0,94,0.00,,,0.02,weatherlink.com 1.10,2013-06-13 01:43:00,
2013-06-12 21:58:00,67.0,66.0,29.64,ENE,59,3.0,3.0,95,0.00,,,0.02,weatherlink.com 1.10,2013-06-13 01:58:00,
2013-06-12 22:13:00,66.8,66.0,29.64,SSE,163,1.0,3.0,96,0.00,,,0.02,weatherlink.com 1.10,2013-06-13 02:13:00,
2013-06-12 22:28:00,67.0,66.0,29.62,ENE,61,2.0,3.0,96,0.00,,,0.02,weatherlink.com 1.10,2013-06-13 02:28:00,
2013-06-12 22:43:00,67.1,66.0,29.60,East,80,3.0,7.0,96,0.00,,,0.02,weatherlink.com 1.10,2013-06-13 02:43:00,
2013-06-12 22:58:00,67.4,66.0,29.61,ESE,109,2.0,5.0,95,0.00,,,0.02,weatherlink.com 1.10,2013-06-13 02:58:00,
2013-06-12 23:13:00,67.4,66.0,29.60,NNE,22,3.0,4.0,94,0.00,,,0.02,weatherlink.com 1.10,2013-06-13 03:13:00,
2013-06-12 23:28:00,67.2,66.0,29.64,WNW,302,3.0,9.0,95,0.00,,,0.02,weatherlink.com 1.10,2013-06-13 03:28:00,
2013-06-12 23:43:00,66.9,66.0,29.59,NNE,17,7.0,13.0,96,0.01,,,0.03,weatherlink.com 1.10,2013-06-13 03:43:00,
2013-06-12 23:58:00,66.8,66.0,29.57,ENE,61,10.0,12.0,96,0.02,,,0.04,weatherlink.com 1.10,2013-06-13 03:58:00,